Weather History for Dansville, NY

Change the Weather History Date:

Wednesday, February 19, 2014

  Actual Average Record
Temperature  
Mean Temperature 37 °F -  
Max Temperature 48 °F 38 °F 65 °F (1949)
Min Temperature 26 °F 19 °F -10 °F (1979)
Degree Days  
Heating Degree Days 28    
Moisture  
Dew Point 29 °F    
Average Humidity 67    
Maximum Humidity 85    
Minimum Humidity 52    
Precipitation  
Precipitation 0.00 in - - ()
Sea Level Pressure  
Sea Level Pressure 29.81 in    
Wind  
Wind Speed 8 mph (South)    
Max Wind Speed 15 mph    
Max Gust Speed 21 mph    
Visibility 10 miles    
Events Rain    
Averages and records for this station are not official NWS values.
T = Trace of Precipitation, MM = Missing Value Source: NWS Daily Summary

Daily Weather History Graph

Daily Weather History Graph

Search for Another Location

Airport:

Trip Planner

Search our weather history database for the weather conditions in past years. The results will help you decide how hot, cold, wet, or windy it might be!

Date:

Astronomy

Feb. 19, 2014 Rise Set
Actual Time 7:01 AM EST 5:48 PM EST
Civil Twilight 6:33 AM EST 6:16 PM EST
Nautical Twilight 6:00 AM EST 6:49 PM EST
Astronomical Twilight 5:27 AM EST 7:22 PM EST
Moon 10:46 PM EST 9:00 AM EST
Length of Visible Light 11h 43m
Length of Day
10h 46m
Waning Gibbous, 80% of the Moon is Illuminated
Feb 19
Waning Gibbous
Feb 22
Last Quarter
Mar 1
New
Mar 8
First Quarter
Mar 16
Full

Hourly Weather History & Observations

Time (EST) Temp. Windchill Dew Point Humidity Pressure Visibility Wind Dir Wind Speed Gust Speed Precip Events Conditions
12:54 AM 26.1 °F 16.8 °F 19.0 °F 75% 29.91 in 8.0 mi South 9.2 mph - N/A   Clear
1:54 AM 28.9 °F 18.6 °F 21.0 °F 72% 29.92 in 10.0 mi SSE 12.7 mph - N/A   Clear
2:54 AM 30.0 °F 25.2 °F 21.0 °F 69% 29.88 in 10.0 mi South 4.6 mph - N/A   Clear
3:54 AM 30.9 °F 25.2 °F 21.0 °F 67% 29.81 in 10.0 mi South 5.8 mph - N/A   Clear
4:54 AM 33.1 °F 26.9 °F 21.9 °F 64% 29.77 in 10.0 mi SE 6.9 mph - N/A   Clear
5:54 AM 34.0 °F 27.2 °F 21.0 °F 59% 29.73 in 10.0 mi SE 8.1 mph - N/A   Partly Cloudy
6:54 AM 37.0 °F 33.3 °F 21.0 °F 52% 29.71 in 10.0 mi SE 4.6 mph - N/A   Clear
7:54 AM 41.0 °F 35.2 °F 25.0 °F 53% 29.68 in 10.0 mi SE 9.2 mph - N/A   Clear
8:54 AM 41.0 °F 35.8 °F 30.9 °F 67% 29.70 in 10.0 mi ESE 8.1 mph - N/A   Clear
9:54 AM 45.0 °F 40.1 °F 34.0 °F 65% 29.67 in 10.0 mi SSE 9.2 mph 20.7 mph N/A   Clear
10:54 AM 48.0 °F - 35.1 °F 61% 29.67 in 10.0 mi South 11.5 mph 17.3 mph N/A   Mostly Cloudy
11:54 AM 46.9 °F - 36.0 °F 66% 29.66 in 10.0 mi South 3.5 mph - N/A   Overcast
12:26 PM 46.4 °F 41.9 °F 35.6 °F 66% 29.60 in 10.0 mi South 9.2 mph - N/A   Overcast
12:34 PM 46.4 °F 42.9 °F 37.4 °F 71% 29.60 in 10.0 mi South 6.9 mph - N/A   Overcast
12:54 PM 46.9 °F - 37.0 °F 68% 29.65 in 10.0 mi Variable 4.6 mph - N/A   Overcast
1:54 PM 46.9 °F - 37.0 °F 68% 29.64 in 10.0 mi South 4.6 mph - N/A   Overcast
2:54 PM 46.9 °F - 36.0 °F 66% 29.67 in 10.0 mi WNW 8.1 mph - N/A   Overcast
3:16 PM 44.6 °F 37.8 °F 30.2 °F 57% 29.65 in 10.0 mi NW 15.0 mph 20.7 mph N/A   Overcast
3:54 PM 46.0 °F 40.6 °F 30.0 °F 54% 29.74 in 10.0 mi West 11.5 mph 20.7 mph N/A   Overcast
4:54 PM 43.0 °F 38.8 °F 28.9 °F 58% 29.79 in 10.0 mi WNW 6.9 mph 18.4 mph N/A   Overcast
5:54 PM 39.0 °F 34.0 °F 30.9 °F 73% 29.88 in 7.0 mi West 6.9 mph - 0.00 in Rain Light Rain
6:42 PM 37.4 °F 33.8 °F 30.2 °F 75% 29.89 in 10.0 mi Variable 4.6 mph - 0.00 in   Overcast
6:54 PM 37.9 °F 30.5 °F 30.0 °F 73% 29.95 in 10.0 mi NW 11.5 mph 18.4 mph 0.00 in   Overcast
7:18 PM 37.4 °F 31.4 °F 28.4 °F 70% 29.93 in 10.0 mi NNW 8.1 mph 18.4 mph N/A   Scattered Clouds
7:54 PM 36.0 °F 32.1 °F 28.0 °F 73% 30.01 in 9.0 mi Variable 4.6 mph - N/A   Scattered Clouds
8:54 PM 35.1 °F 32.2 °F 27.0 °F 72% 30.05 in 9.0 mi Variable 3.5 mph - N/A   Partly Cloudy
9:54 PM 34.0 °F 31.0 °F 26.1 °F 73% 30.11 in 9.0 mi Variable 3.5 mph - N/A   Scattered Clouds
10:54 PM 30.0 °F 25.2 °F 25.0 °F 82% 30.13 in 7.0 mi SE 4.6 mph - N/A   Clear
11:54 PM 28.9 °F 23.9 °F 25.0 °F 85% 30.13 in 7.0 mi SSE 4.6 mph - N/A   Clear